Flag for Liberia Weather past 2 weeks in Gbarnga, Liberia

Now
90 °F

Passing clouds.


Feels Like: 92 °F
Forecast: N/A
Wind: 7 mph from Southeast

Location: Roberts Field

Current Time: Dec 28, 2014 at 3:11:33 PM

Latest Report: Dec 28, 2014 at 2:30 PM


Visibility: N/A

Pressure: 29.83 "Hg

Humidity: 46%

Dew point: 66 °F

Location of GbarngaLocation

Historic Weather in Gbarnga — Graph

°F

Gbarnga temperature yesterday

Maximum temperature yesterday: 88 °F (at 12:00 PM)
Minimum temperature yesterday: 70 °F (at 7:00 AM)
Average temperature yesterday: 79 °F

Past Weeks' High & Low Weather Summary

 TemperatureHumidityPressure
High91 °F (Dec 23, 2:00 PM)100% (Dec 17, 6:00 AM)30.01 "Hg (Dec 17, 6:00 AM)
Low70 °F (Dec 27, 7:00 AM)18% (Dec 28, 7:03 AM)29.77 "Hg (Dec 13, 3:30 PM)
Average81 °F82%29.89 "Hg
* Reported Dec 13 2:00 PM — Dec 28 2:00 PM, Gbarnga, Weather by CustomWeather, © 2014

Note: Actual official high and low records may vary slightly from our data, if they occured in-between our weather recording intervals... More about our weather records

Advertising

Gbarnga weather history for previous 24 hours

 ConditionsComfort  
Time TempWeatherWind HumidityBarometerVisibility
2:00 PM
Dec 28
90 °FPassing clouds.5 mph46%29.83 "HgN/A
1:30 PM90 °FPassing clouds.9 mph49%29.86 "HgN/A
1:00 PM90 °FPassing clouds.6 mph46%29.86 "HgN/A
12:30 PM88 °FScattered clouds.14 mph52%29.89 "HgN/A
12:00 PM86 °FScattered clouds.6 mph66%29.89 "HgN/A
11:30 AM84 °FScattered clouds.12 mph74%29.92 "HgN/A
11:00 AM82 °FPassing clouds.9 mph79%29.92 "HgN/A
10:30 AM81 °FPassing clouds.8 mph84%29.92 "Hg6 mi
10:00 AM79 °FPassing clouds.13 mph84%29.92 "Hg6 mi
9:30 AM79 °FPassing clouds.10 mph89%29.95 "Hg5 mi
9:00 AM77 °FSunny.3 mph89%29.92 "Hg5 mi
8:30 AM75 °FPassing clouds.6 mph94%29.92 "Hg5 mi
8:00 AM73 °FPassing clouds.No wind94%29.92 "Hg4 mi
7:30 AM72 °FPassing clouds.No wind94%29.89 "Hg4 mi
7:03 AM86 °FPleasantly warm.N/A18%N/AN/A
6:30 AM72 °FPassing clouds.3 mph94%29.89 "Hg4 mi
6:00 AM73 °FPassing clouds.No wind94%29.89 "Hg4 mi
5:30 AM73 °FPassing clouds.No wind94%29.86 "Hg4 mi
4:30 AM73 °FPassing clouds.No wind94%29.86 "Hg4 mi
3:30 AM73 °FPassing clouds.3 mph94%29.86 "Hg4 mi
3:00 AM73 °FPassing clouds.3 mph94%29.86 "Hg4 mi
2:00 AM73 °FPassing clouds.No wind100%29.89 "Hg4 mi
1:30 AM73 °FPassing clouds.No wind94%29.89 "Hg4 mi
1:00 AM73 °FPassing clouds.No wind100%29.89 "Hg4 mi
12:30 AM73 °FFog.No wind100%29.89 "Hg3 mi
12:00 AM73 °FFog.No wind100%29.92 "Hg2 mi
11:30 PM
Dec 27
73 °FFog.No wind100%29.92 "Hg2 mi
10:30 PM75 °FClear.N/A94%29.92 "Hg4 mi
10:00 PM75 °FClear.No wind94%29.92 "Hg6 mi
9:30 PM77 °FClear.No wind94%29.92 "Hg6 mi
9:00 PM77 °FClear.No wind94%29.92 "Hg6 mi
8:00 PM79 °FClear.No wind89%29.89 "Hg6 mi
7:00 PM81 °FPassing clouds.No wind84%29.86 "HgN/A
6:30 PM84 °FPassing clouds.3 mph74%29.86 "HgN/A
6:00 PM84 °FPassing clouds.3 mph74%29.83 "HgN/A
5:30 PM86 °FPassing clouds.6 mph70%29.83 "HgN/A
5:00 PM86 °FPassing clouds.8 mph70%29.83 "Hg6 mi
4:30 PM88 °FScattered clouds.8 mph66%29.83 "Hg6 mi
4:00 PM86 °FScattered clouds.7 mph70%29.83 "Hg6 mi
3:30 PM88 °FScattered clouds.7 mph66%29.83 "Hg6 mi
3:00 PM88 °FPartly sunny.10 mph66%29.83 "Hg6 mi
Weather by CustomWeather, © 2014

See weather overviewHow to use our weather pages